Chattanooga, TN

4:30 AM EST on December 14, 2017 (GMT -0500)
Lovell

Weather History for KCHA - April, 2013

Change the Weather History Date:

Thursday, April 18, 2013

  Actual Average Record
Temperature  
Mean Temperature 70 °F 61 °F  
Max Temperature 82 °F 73 °F 90 °F (1955)
Min Temperature 58 °F 49 °F 32 °F (1974)
Degree Days  
Heating Degree Days 0 5  
Month to date heating degree days 95 128  
Since 1 July heating degree days 2962 3154  
Cooling Degree Days 5 1  
Month to date cooling degree days 34 18  
Year to date cooling degree days 39 25  
Growing Degree Days 20 (Base 50)    
Moisture  
Dew Point 58 °F    
Average Humidity 67    
Maximum Humidity 97    
Minimum Humidity 37    
Precipitation  
Precipitation 0.00 in 0.13 in 2.69 in (1943)
Month to date precipitation 4.50 2.42  
Year to date precipitation 22.89 17.15  
Snow  
Snow 0.00 in 0.00 in - ()
Month to date snowfall 0.0 0.1  
Since 1 July snowfall 0.3 3.9  
Snow Depth 0.00 in    
Sea Level Pressure  
Sea Level Pressure 29.97 in    
Wind  
Wind Speed 7 mph (SSE)    
Max Wind Speed 20 mph    
Max Gust Speed 29 mph    
Visibility 10 miles    
Events Fog    
T = Trace of Precipitation, MM = Missing Value Source: NWS Daily Summary

Daily Weather History Graph

Daily Weather History Graph

Search for Another Location

Airport or City:

Trip Planner

Search our weather history database for the weather conditions in past years. The results will help you decide how hot, cold, wet, or windy it might be!

Date:

Astronomy

Apr. 18, 2013 Rise Set
Actual Time 7:04 AM EDT 8:15 PM EDT
Civil Twilight 6:38 AM EDT 8:42 PM EDT
Nautical Twilight 6:07 AM EDT 9:13 PM EDT
Astronomical Twilight 5:34 AM EDT 9:46 PM EDT
Moon 1:18 PM EDT (4/18) 2:27 AM EDT (4/18)
Length of Visible Light 14h 03m
Length of Day
13h 11m
First Quarter, 51% of the Moon is Illuminated
Apr 18
First Quarter
Apr 25
Full
May 2
Last Quarter
May 9
New
May 18
First Quarter

Hourly Weather History & Observations

Time (EDT) Temp. Heat Index Dew Point Humidity Pressure Visibility Wind Dir Wind Speed Gust Speed Precip Events Conditions
12:53 AM 63.0 °F - 61.0 °F 93% 30.04 in 10.0 mi Calm Calm - N/A   Clear
1:53 AM 63.0 °F - 61.0 °F 93% 30.03 in 10.0 mi Calm Calm - N/A   Clear
2:53 AM 62.1 °F - 60.1 °F 93% 30.01 in 10.0 mi Calm Calm - N/A   Clear
3:53 AM 62.1 °F - 60.1 °F 93% 30.02 in 10.0 mi Calm Calm - N/A   Clear
4:17 AM 59.0 °F - 57.2 °F 94% 30.03 in 10.0 mi NW 3.5 mph - N/A   Partly Cloudy
4:53 AM 60.1 °F - 59.0 °F 96% 30.02 in 10.0 mi Calm Calm - N/A   Clear
5:49 AM 60.8 °F - 59.0 °F 94% 30.04 in 10.0 mi Calm Calm - N/A Fog Patches of Fog
5:53 AM 60.1 °F - 59.0 °F 96% 30.03 in 10.0 mi Calm Calm - N/A Fog Patches of Fog
6:53 AM 59.0 °F - 57.9 °F 96% 30.03 in 10.0 mi Calm Calm - N/A Fog Patches of Fog
7:53 AM 60.1 °F - 59.0 °F 96% 30.04 in 10.0 mi Calm Calm - N/A   Scattered Clouds
8:53 AM 66.0 °F - 62.1 °F 87% 30.05 in 10.0 mi Calm Calm - N/A   Scattered Clouds
9:53 AM 69.1 °F - 62.1 °F 78% 30.05 in 10.0 mi SSE 8.1 mph - N/A   Scattered Clouds
10:53 AM 73.0 °F - 62.1 °F 68% 30.04 in 10.0 mi Variable 5.8 mph - N/A   Mostly Cloudy
11:53 AM 73.0 °F - 57.9 °F 59% 30.03 in 10.0 mi South 8.1 mph 19.6 mph N/A   Mostly Cloudy
12:53 PM 77.0 °F - 57.0 °F 50% 30.00 in 10.0 mi South 10.4 mph 24.2 mph N/A   Mostly Cloudy
1:53 PM 78.1 °F - 55.9 °F 46% 29.97 in 10.0 mi SSE 15.0 mph 20.7 mph N/A   Scattered Clouds
2:53 PM 80.1 °F 80.1 °F 55.0 °F 42% 29.95 in 10.0 mi South 16.1 mph 23.0 mph N/A   Mostly Cloudy
3:53 PM 80.1 °F 80.1 °F 55.0 °F 42% 29.93 in 10.0 mi SSE 8.1 mph - N/A   Mostly Cloudy
4:53 PM 82.0 °F 81.4 °F 55.0 °F 39% 29.89 in 10.0 mi SE 10.4 mph 18.4 mph N/A   Mostly Cloudy
5:53 PM 82.0 °F 81.3 °F 54.0 °F 38% 29.88 in 10.0 mi South 17.3 mph 23.0 mph N/A   Mostly Cloudy
6:53 PM 80.1 °F 80.0 °F 54.0 °F 40% 29.86 in 10.0 mi SSE 11.5 mph 19.6 mph N/A   Mostly Cloudy
7:53 PM 78.1 °F - 55.0 °F 45% 29.85 in 10.0 mi SSE 6.9 mph - N/A   Mostly Cloudy
8:53 PM 77.0 °F - 55.9 °F 48% 29.85 in 10.0 mi SSE 8.1 mph - N/A   Mostly Cloudy
9:53 PM 75.9 °F - 55.9 °F 50% 29.85 in 10.0 mi SSE 4.6 mph - N/A   Overcast
10:53 PM 75.9 °F - 57.0 °F 52% 29.82 in 10.0 mi SSE 11.5 mph 18.4 mph N/A   Overcast
11:53 PM 75.0 °F - 57.0 °F 53% 29.79 in 10.0 mi SSE 11.5 mph 20.7 mph N/A   Overcast